Meridian NAS, MS

10:47 AM CDT on April 27, 2017 (GMT -0500)
Meridian Naval Air Station

Weather History for KNMM - October, 2011

Change the Weather History Date:

Friday, October 7, 2011

  Actual Average Record
Temperature  
Mean Temperature 68 °F -  
Max Temperature 82 °F 76 °F 91 °F (2016)
Min Temperature 55 °F 55 °F 43 °F (2010)
Cooling Degree Days 3    
Growing Degree Days 18 (Base 50)    
Moisture  
Dew Point 54 °F    
Average Humidity 67    
Maximum Humidity 93    
Minimum Humidity 36    
Precipitation  
Precipitation 0.01 in - - ()
Sea Level Pressure  
Sea Level Pressure 30.26 in    
Wind  
Wind Speed 3 mph (East)    
Max Wind Speed 13 mph    
Max Gust Speed 17 mph    
Visibility 10 miles    
Events      
Averages and records for this station are not official NWS values.
T = Trace of Precipitation, MM = Missing Value Source: NWS Daily Summary

Daily Weather History Graph

Daily Weather History Graph

Search for Another Location

Airport or City:

Trip Planner

Search our weather history database for the weather conditions in past years. The results will help you decide how hot, cold, wet, or windy it might be!

Date:

Astronomy

Oct. 07, 2011 Rise Set
Actual Time 6:52 AM CDT 6:31 PM CDT
Civil Twilight 6:27 AM CDT 6:56 PM CDT
Nautical Twilight 5:59 AM CDT 7:24 PM CDT
Astronomical Twilight 5:30 AM CDT 7:53 PM CDT
Moon 4:03 PM CDT (10/7) 2:53 AM CDT (10/7)
Length of Visible Light 12h 28m
Length of Day
11h 39m
Waxing Gibbous, 83% of the Moon is Illuminated
Oct 7
Waxing Gibbous
Oct 11
Full
Oct 19
Last Quarter
Oct 26
New
Nov 2
First Quarter

Hourly Weather History & Observations

Time (CDT) Temp. Heat Index Dew Point Humidity Pressure Visibility Wind Dir Wind Speed Gust Speed Precip Events Conditions
12:56 AM 57.0 °F - 55.0 °F 93% 30.23 in 7.0 mi West 3.5 mph - N/A   Clear
1:56 AM 57.9 °F - 54.0 °F 87% 30.23 in 10.0 mi Calm Calm - N/A   Clear
2:56 AM 57.0 °F - 53.1 °F 87% 30.22 in 10.0 mi Calm Calm - N/A   Clear
3:56 AM 55.9 °F - 51.1 °F 84% 30.22 in 10.0 mi Calm Calm - N/A   Clear
4:56 AM 55.9 °F - 51.1 °F 84% 30.23 in 10.0 mi Calm Calm - N/A   Clear
5:56 AM 55.0 °F - 51.1 °F 86% 30.26 in 10.0 mi Calm Calm - N/A   Clear
6:56 AM 55.0 °F - 51.1 °F 86% 30.28 in 7.0 mi Calm Calm - 0.01 in   Clear
7:56 AM 60.1 °F - 54.0 °F 80% 30.30 in 10.0 mi Calm Calm - N/A   Clear
8:56 AM 66.0 °F - 55.9 °F 70% 30.32 in 10.0 mi ESE 3.5 mph - N/A   Clear
9:56 AM 71.1 °F - 55.9 °F 59% 30.33 in 10.0 mi ESE 9.2 mph - N/A   Clear
10:56 AM 75.0 °F - 55.9 °F 51% 30.33 in 10.0 mi East 11.5 mph - N/A   Clear
11:56 AM 78.1 °F - 55.9 °F 46% 30.31 in 10.0 mi Variable 5.8 mph - N/A   Clear
12:56 PM 79.0 °F - 54.0 °F 42% 30.29 in 10.0 mi ENE 12.7 mph 17.3 mph N/A   Clear
1:56 PM 80.1 °F 80.0 °F 54.0 °F 40% 30.26 in 10.0 mi NE 5.8 mph 16.1 mph N/A   Clear
2:56 PM 81.0 °F 80.4 °F 53.1 °F 38% 30.24 in 10.0 mi ESE 8.1 mph - N/A   Clear
3:56 PM 81.0 °F - 52.0 °F 36% 30.23 in 10.0 mi East 11.5 mph - N/A   Clear
4:56 PM 80.1 °F - 52.0 °F 38% 30.23 in 10.0 mi ESE 9.2 mph - N/A   Clear
5:56 PM 73.9 °F - 55.9 °F 53% 30.22 in 10.0 mi Calm Calm - N/A   Clear
6:56 PM 71.1 °F - 55.9 °F 59% 30.23 in 10.0 mi Calm Calm - N/A   Clear
7:56 PM 68.0 °F - 55.9 °F 65% 30.25 in 10.0 mi Calm Calm - N/A   Clear
8:56 PM 61.0 °F - 55.9 °F 83% 30.26 in 10.0 mi Calm Calm - N/A   Clear
9:56 PM 64.0 °F - 55.9 °F 75% 30.27 in 10.0 mi Calm Calm - N/A   Clear
10:56 PM 62.1 °F - 55.9 °F 80% 30.27 in 10.0 mi Calm Calm - N/A   Clear
11:56 PM 57.9 °F - 55.0 °F 90% 30.27 in 10.0 mi Calm Calm - N/A   Clear